Rhinelander, WI

8:33 AM CST on December 03, 2016 (GMT -0600)
Rhinelander-Oneida County

Weather History for KRHI - November, 2013

Change the Weather History Date:

Tuesday, November 12, 2013

  Actual Average Record
Temperature  
Mean Temperature 17 °F 32 °F  
Max Temperature 26 °F 40 °F 61 °F (1930)
Min Temperature 8 °F 25 °F -6 °F (1986)
Degree Days  
Heating Degree Days 48 33  
Month to date heating degree days 400 360  
Since 1 July heating degree days 1502 1453  
Cooling Degree Days 0 0  
Month to date cooling degree days 0 0  
Year to date cooling degree days 281 261  
Moisture  
Dew Point 9 °F    
Average Humidity 66    
Maximum Humidity 91    
Minimum Humidity 40    
Precipitation  
Precipitation T in 0.06 in 1.24 in (1964)
Month to date precipitation 1.23 0.77  
Year to date precipitation 34.34 28.89  
Snow  
Snow T in - 3.00 in (1919)
Month to date snowfall 3.0  
Since 1 July snowfall 5.2  
Since 1 September snowfall 5.2  
Snow Depth T in    
Sea Level Pressure  
Sea Level Pressure 30.62 in    
Wind  
Wind Speed 9 mph (West)    
Max Wind Speed 14 mph    
Max Gust Speed -    
Visibility 10 miles    
Events      
T = Trace of Precipitation, MM = Missing Value Source: NWS Daily Summary

Daily Weather History Graph

Daily Weather History Graph

Search for Another Location

Airport or City:

Trip Planner

Search our weather history database for the weather conditions in past years. The results will help you decide how hot, cold, wet, or windy it might be!

Date:

Astronomy

Nov. 12, 2013 Rise Set
Actual Time 6:53 AM CST 4:30 PM CST
Civil Twilight 6:21 AM CST 5:02 PM CST
Nautical Twilight 5:45 AM CST 5:37 PM CST
Astronomical Twilight 5:10 AM CST 6:12 PM CST
Moon 1:57 PM CST (11/12) 1:28 AM CST (11/12)
Length of Visible Light 10h 40m
Length of Day
9h 36m
Waxing Gibbous, 76% of the Moon is Illuminated
Nov 12
Waxing Gibbous
Nov 17
Full
Nov 25
Last Quarter
Dec 2
New
Dec 9
First Quarter

Hourly Weather History & Observations

Time (CST) Temp. Windchill Dew Point Humidity Pressure Visibility Wind Dir Wind Speed Gust Speed Precip Events Conditions
12:20 AM 19.4 °F 8.6 °F 12.2 °F 74% 30.52 in 9.0 mi WNW 9.2 mph - N/A   Mostly Cloudy
12:35 AM 19.4 °F 11.5 °F 14.0 °F 80% 30.52 in 9.0 mi WNW 5.8 mph - 0.00 in   Overcast
12:53 AM 19.0 °F 11.1 °F 12.9 °F 77% 30.61 in 10.0 mi WNW 5.8 mph - 0.00 in   Overcast
1:38 AM 17.6 °F 8.2 °F 10.4 °F 73% 30.53 in 10.0 mi WNW 6.9 mph - N/A   Partly Cloudy
1:53 AM 17.1 °F 5.8 °F 12.0 °F 81% 30.63 in 10.0 mi WNW 9.2 mph - N/A   Scattered Clouds
2:00 AM 17.6 °F 6.4 °F 12.2 °F 79% 30.54 in 10.0 mi WNW 9.2 mph - N/A   Mostly Cloudy
2:53 AM 15.1 °F 4.2 °F 10.0 °F 80% 30.65 in 10.0 mi West 8.1 mph - N/A   Mostly Cloudy
3:28 AM 14.0 °F 3.9 °F 8.6 °F 79% 30.56 in 10.0 mi West 6.9 mph - N/A   Scattered Clouds
3:53 AM 12.0 °F 1.5 °F 9.0 °F 88% 30.66 in 10.0 mi West 6.9 mph - N/A   Clear
4:28 AM 12.2 °F 1.7 °F 8.6 °F 85% 30.57 in 10.0 mi West 6.9 mph - N/A   Mostly Cloudy
4:53 AM 12.0 °F 1.5 °F 9.0 °F 88% 30.67 in 10.0 mi West 6.9 mph - N/A   Mostly Cloudy
5:02 AM 10.4 °F -1.5 °F 8.6 °F 92% 30.57 in 10.0 mi West 8.1 mph - N/A   Scattered Clouds
5:53 AM 9.0 °F -2.2 °F 6.1 °F 88% 30.68 in 10.0 mi West 6.9 mph - N/A   Clear
6:53 AM 10.0 °F -0.9 °F 7.0 °F 87% 30.67 in 10.0 mi West 6.9 mph - N/A   Clear
7:53 AM 12.9 °F 0.7 °F 9.0 °F 84% 30.69 in 10.0 mi West 9.2 mph - N/A   Mostly Cloudy
8:23 AM 15.8 °F 4.2 °F 8.6 °F 73% 30.59 in 10.0 mi WNW 9.2 mph - N/A   Scattered Clouds
8:53 AM 16.0 °F 3.6 °F 9.0 °F 74% 30.69 in 10.0 mi West 10.4 mph - N/A   Scattered Clouds
9:53 AM 16.0 °F 3.6 °F 8.1 °F 71% 30.69 in 10.0 mi West 10.4 mph - N/A   Clear
10:53 AM 19.0 °F 7.5 °F 10.0 °F 68% 30.69 in 10.0 mi West 10.4 mph - N/A   Clear
11:53 AM 21.0 °F 10.6 °F 8.1 °F 57% 30.66 in 10.0 mi West 9.2 mph - N/A   Partly Cloudy
12:53 PM 24.1 °F 12.0 °F 3.0 °F 40% 30.62 in 10.0 mi West 13.8 mph - N/A   Clear